Volver al catálogo

CANVAS

ActivoRadioaficionadoVLEO
NORAD 68635·PAYLOAD·🇺🇸 United States

Lanzado Apr 7, 2026 desde Vandenberg Space Force Base

Loading…

Próximos Pases (próximas 24 horas)

TLE

ActualizadoSource: Space-Track

Época: Sep 14, 2026, 09:12 UTC

1 68635U 26074J   26257.38361919  .00010195  00000-0  38542-3 0  9990
2 68635  60.0224 194.9270 0037105  86.2921 274.2403 15.26933083 24402

Sigue CANVAS en tiempo real con AllMySat

Download on the App Store